Tracking 29892 objects as of 21-Nov-2024
HD Live streaming from Space Station
objects crossing your sky now

STARLINK-11108

Track STARLINK-11108 now!
10-day predictions
STARLINK-11108 is classified as:


NORAD ID: 59712
Int'l Code: 2024-088E
Perigee: 366.1 km
Apogee: 367.6 km
Inclination: 53.2 °
Period: 91.7 minutes
Semi major axis: 6737 km
RCS: Unknown
Launch date: May 10, 2024
Source: United States (US)
Launch site: AIR FORCE WESTERN TEST RANGE (AFWTR)
Your satellite tracking list
Your tracking list is empty




NASA's NSSDC Master Catalog

Two Line Element Set (TLE):
1 59712U 24088E   24325.88328555  .00002890  00000-0  28693-4 0  9997
2 59712  53.1577 142.1077 0001144 111.7323 248.3816 15.69717165 31851
Source of the keplerian elements: AFSPC